This demonstration page uses our WeatherBlox Daily Observations layout. Learn more.

Left ArrowRight Arrow

44.8408, -93.29828

Hourly Observations for February 14, 2022

Temp ( °F °C ) Dew Point ( °F °C ) Humidity (%) Winds ( mph kmh ) Pressure ( in mb ) Visibility ( mi km ) Precip ( " mm )
12:53 am 00:53 Cloudy 7 -13.9 0 -17.8 73 73 SE 9 15 30.14 1021 10 16 0.00 0.00
1:27 am 01:27 Cloudy with Light Snow 7 -13.9 0 -17.8 73 73 SE 9 15 30.18 1022 2 3 0.00 0.00
1:45 am 01:45 Cloudy with Light Snow 7 -13.9 1 -17.2 76 76 SE 9 15 30.18 1022 3 4 0.01 0.25
1:49 am 01:49 Cloudy with Light Snow 7 -14 1 -17 78 78 SE 9 15 30.17 1022 3 5 0.01 0.25
1:53 am 01:53 Cloudy with Light Snow 7 -13.9 1 -17.2 76 76 SE 9 15 30.13 1020 4 6 0.01 0.25
2:53 am 02:53 Cloudy with Light Snow 7 -13.9 1 -17.2 76 76 SE 9 15 30.14 1021 6 10 0.00 0.00
3:09 am 03:09 Cloudy with Light Snow 7 -13.9 1 -17.2 76 76 SE 7 11 30.18 1022 3 4 0.00 0.00
3:21 am 03:21 Cloudy with Light Snow 7 -13.9 2 -16.7 80 80 ESE 7 11 30.18 1022 3 5 0.00 0.00
3:53 am 03:53 Cloudy with Light Snow 8 -13.3 2 -16.7 76 76 ESE 7 11 30.14 1021 5 8 0.01 0.25
4:53 am 04:53 Cloudy with Light Snow 8 -13.3 2 -16.7 76 76 E 6 9 30.18 1022 7 11 0.00 0.00
5:53 am 05:53 Cloudy with Light Snow 8 -13.3 3 -16.1 80 80 NE 5 7 30.21 1023 9 14 0.00 0.00
6:53 am 06:53 Mostly Clear 6 -14.4 1 -17.2 79 79 NNE 5 7 30.25 1024 8 13 0.00 0.00
7:53 am 07:53 Mostly Sunny 5 -15 0 -17.8 79 79 NNE 7 11 30.29 1026 10 16 0.00 0.00
8:53 am 08:53 Sunny 7 -13.9 1 -17.2 76 76 N 7 11 30.34 1027 10 16 0.00 0.00
9:53 am 09:53 Mostly Sunny 9 -12.8 2 -16.7 73 73 N 7 11 30.34 1028 8 13 0.00 0.00
10:53 am 10:53 Sunny 11 -11.7 2 -16.7 67 67 NNE 10 17 30.36 1028 10 16 0.00 0.00
11:53 am 11:53 Sunny 14 -10 2 -16.7 58 58 NNE 7 11 30.37 1028 10 16 0.00 0.00
12:53 pm 12:53 Sunny 16 -8.9 3 -16.1 56 56 VRB 3 6 30.36 1028 10 16 0.00 0.00
1:53 pm 13:53 Sunny 16 -8.9 3 -16.1 56 56 NW 6 9 30.37 1028 10 16 0.00 0.00
2:53 pm 14:53 Mostly Sunny 17 -8.3 3 -16.1 54 54 N 5 7 30.36 1028 10 16 0.00 0.00
3:53 pm 15:53 Mostly Sunny 17 -8.3 3 -16.1 54 54 NW 5 7 30.37 1028 10 16 0.00 0.00
4:53 pm 16:53 Partly Cloudy 16 -8.9 2 -16.7 54 54 VRB 7 11 30.36 1028 10 16 0.00 0.00
5:53 pm 17:53 Mostly Cloudy 14 -10 2 -16.7 58 58 NNW 5 7 30.38 1029 10 16 0.00 0.00
6:53 pm 18:53 Mostly Cloudy 13 -10.6 2 -16.7 61 61 NW 7 11 30.39 1029 10 16 0.00 0.00
7:53 pm 19:53 Mostly Cloudy 13 -10.6 2 -16.7 61 61 NNW 3 6 30.38 1029 10 16 0.00 0.00
8:53 pm 20:53 Cloudy 12 -11.1 2 -16.7 64 64 N 3 6 30.39 1029 10 16 0.00 0.00
9:53 pm 21:53 Cloudy 13 -10.6 3 -16.1 64 64 VRB 3 6 30.40 1029 10 16 0.00 0.00
10:53 pm 22:53 Cloudy 13 -10.6 1 -17.2 59 59 E 5 7 30.40 1030 10 16 0.00 0.00
11:53 pm 23:53 Mostly Cloudy 12 -11.1 1 -17.2 61 61 SE 5 7 30.41 1030 10 16 0.00 0.00

Powered by AerisWeather